SB KEPS @ AMSAT $ORB21238.N 2Line Orbital Elements 21238.AMSAT HR AMSAT ORBITAL ELEMENTS FOR AMATEUR SATELLITES IN NASA FORMAT FROM WA5QGD FORT WORTH,TX August 26, 2021 BID: ORB21238.N DECODE 2-LINE ELSETS WITH THE FOLLOWING KEY: 1 AAAAAU 00 0 0 BBBBB.BBBBBBBB .CCCCCCCC 00000-0 00000-0 0 DDDZ 2 AAAAA EEE.EEEE FFF.FFFF GGGGGGG HHH.HHHH III.IIII JJ.JJJJJJJJKKKKKZ KEY: A-CATALOGNUM B-EPOCHTIME C-DECAY D-ELSETNUM E-INCLINATION F-RAAN G-ECCENTRICITY H-ARGPERIGEE I-MNANOM J-MNMOTION K-ORBITNUM Z-CHECKSUM TO ALL RADIO AMATEURS BT AO-07 1 07530U 74089B 21238.56681594 -.00000042 00000-0 22185-4 0 9992 2 07530 101.8605 213.0117 0011807 247.5648 224.5523 12.53649961140516 UO-11 1 14781U 84021B 21238.55107964 .00000116 00000-0 20276-4 0 9998 2 14781 97.5960 234.9511 0007720 201.3093 158.7801 14.83315562996325 LO-19 1 20442U 90005G 21238.59028127 .00000014 00000-0 21607-4 0 9991 2 20442 98.7468 194.7154 0011040 319.7111 40.3254 14.32994888650876 HUBBLE 1 20580U 90037B 21238.52298655 .00000650 00000-0 28343-4 0 9997 2 20580 28.4707 321.4280 0002920 96.7069 346.3229 15.09713036521591 MET-2/21 1 22782U 93055A 21238.58617660 .00000014 00000-0 -68267-6 0 9999 2 22782 82.5456 248.2436 0023761 94.7504 22.8672 13.83837020413224 AO-27 1 22825U 93061C 21238.55212239 -.00000011 00000-0 13637-4 0 9990 2 22825 98.9161 257.8812 0008328 183.3967 176.7159 14.30122445456003 IO-26 1 22826U 93061D 21238.57586070 -.00000004 00000-0 16183-4 0 9991 2 22826 98.9104 257.8077 0009101 171.0780 189.0564 14.30462496456258 FO-29 1 24278U 96046B 21238.39950392 -.00000037 00000-0 32619-6 0 9992 2 24278 98.5618 297.0885 0349806 328.5909 29.4754 13.53105323235701 NOAA-15 1 25338U 98030A 21238.60038310 .00000055 00000-0 41442-4 0 9997 2 25338 98.6785 266.4837 0011516 78.5173 281.7299 14.26054657210996 GO-32 1 25397U 98043D 21238.47364494 -.00000009 00000-0 15614-4 0 9998 2 25397 98.7744 183.8481 0000550 179.7654 180.3525 14.23713887201459 ISS 1 25544U 98067A 21238.75442873 .00001709 00000-0 39785-4 0 9999 2 25544 51.6458 353.7620 0002735 318.0806 134.7272 15.48520203299534 NO-44 1 26931U 01043C 21238.36776835 -.00000030 00000-0 20276-4 0 9995 2 26931 67.0506 100.0037 0005522 265.3043 94.7428 14.30629572 39190 SO-50 1 27607U 02058C 21238.30168491 .00000065 00000-0 29865-4 0 9990 2 27607 64.5552 124.7504 0049305 359.5812 0.5240 14.75779396 4810 CO-55 1 27844U 03031E 21238.54225837 .00000054 00000-0 43777-4 0 9995 2 27844 98.6810 245.6923 0008861 231.9524 128.0855 14.22327769941948 CO-57 1 27848U 03031J 21238.48596575 .00000037 00000-0 36386-4 0 9991 2 27848 98.6866 246.1971 0008625 247.2033 112.8234 14.21902622941763 RS-22 1 27939U 03042A 21238.49874612 .00000057 00000-0 19008-4 0 9990 2 27939 98.1510 15.1404 0014040 62.4521 297.8112 14.67013042957795 NOAA-18 1 28654U 05018A 21238.63816089 .00000091 00000-0 73370-4 0 9990 2 28654 98.9890 303.7646 0015291 85.3715 274.9203 14.12632918838447 CO-58 1 28895U 05043F 21238.62126615 .00000164 00000-0 40388-4 0 9997 2 28895 98.0682 10.3627 0016443 354.3059 5.7954 14.63947739844271 Falconsat-3 1 30776U 07006E 21238.52233772 .00007354 00000-0 17211-3 0 9997 2 30776 35.4354 9.6809 0002281 204.1410 155.9211 15.41450736803928 CO-65 1 32785U 08021C 21238.36701338 .00000361 00000-0 44206-4 0 9993 2 32785 97.6170 214.5197 0014149 127.2411 233.0099 14.88778287722572 AAUSAT2 1 32788U 08021F 21238.53591872 .00001196 00000-0 11222-3 0 9993 2 32788 97.5090 230.2711 0012860 41.4506 318.7689 14.95707179724334 DO-64 1 32789U 08021G 21238.56508689 .00002338 00000-0 15043-3 0 9995 2 32789 97.3723 271.2266 0009899 259.1801 100.8314 15.09288592727405 CO-66 1 32791U 08021J 21238.47164581 .00000426 00000-0 47877-4 0 9994 2 32791 97.5764 220.4609 0014860 92.6017 267.6904 14.91487564723217 RS-30 1 32953U 08025A 21238.40913825 .00000021 00000-0 80971-4 0 9997 2 32953 82.5070 7.4186 0019719 181.8504 178.2507 12.43104141601677 PRISM 1 33493U 09002B 21238.47727697 .00000513 00000-0 49141-4 0 9990 2 33493 98.1952 204.4231 0016506 56.9612 303.3192 14.97802604684809 NOAA-19 1 33591U 09005A 21238.60799849 .00000029 00000-0 41319-4 0 9996 2 33591 99.1812 261.0427 0013015 297.6643 62.3207 14.12491281646562 SRMSAT 1 37841U 11058D 21238.39541022 .00000309 00000-0 24847-4 0 9991 2 37841 19.9709 238.3464 0011776 343.2843 163.6048 14.10701759509523 HRBE 1 37855U 11061F 21238.49275960 .00001442 00000-0 76131-4 0 9998 2 37855 101.7150 198.2439 0165548 222.2198 136.6171 15.08036548536735 RS-40 1 38735U 12041C 21238.32146080 .00000019 00000-0 69320-4 0 9998 2 38735 82.4742 89.5304 0016614 296.7228 63.2152 12.42583506411863 ZACUBE-1 1 39417U 13066B 21238.48735142 .00000345 00000-0 49279-4 0 9997 2 39417 97.5984 219.2067 0057087 292.2809 67.2358 14.81574101419449 GOMX-1 1 39430U 13066Q 21238.59124611 .00000181 00000-0 42023-4 0 9995 2 39430 97.8114 157.6300 0148886 254.0072 104.4691 14.59659931413272 LO-74 1 39440U 13066AA 21238.46854701 .00000401 00000-0 62091-4 0 9994 2 39440 97.6822 204.3811 0080141 9.5088 350.7617 14.76295058416758 AO-73 1 39444U 13066AE 21238.42833898 .00000410 00000-0 56249-4 0 9996 2 39444 97.5887 221.5270 0056012 282.2030 77.2914 14.82494094417805 SPROUT 1 39770U 14029E 21238.58946374 .00000660 00000-0 76873-4 0 9991 2 39770 97.9223 349.8286 0008440 346.7380 13.3611 14.88585347393774 DTUSAT-2 1 40030U 14033W 21238.30900458 .00000367 00000-0 44980-4 0 9998 2 40030 97.9148 165.5413 0010713 310.7296 49.2990 14.89053036389712 EO-80 1 40032U 14033Y 21238.54296799 .00000461 00000-0 54943-4 0 9997 2 40032 97.9155 165.7830 0010692 310.9390 49.0900 14.89012432389725 HODOYOSHI-1 1 40299U 14070B 21238.44908973 .00000882 00000-0 38192-4 0 9991 2 40299 97.2824 310.1268 0014506 99.2408 317.4437 15.24871200378082 FIREBIRD FU3 1 40377U 15003B 21238.47030890 .00003085 00000-0 11362-3 0 9999 2 40377 99.1092 34.4330 0115331 298.4084 60.5561 15.22912220363448 FIREBIRD FU4 1 40378U 15003C 21238.37861504 .00002950 00000-0 10861-3 0 9996 2 40378 99.1096 34.4745 0115413 298.5084 60.4564 15.22963804363430 GRIFEX 1 40379U 15003D 21238.39319811 .00001669 00000-0 70309-4 0 9998 2 40379 99.1053 23.1967 0126805 332.7941 26.6681 15.18437237362798 NO-84 1 40654U 15025D 21237.28350090 .00029543 00000-0 17377-3 0 1234 2 40654 54.9765 75.3959 0062574 247.6644 111.7754 15.75218754 17887 XW-2A 1 40903U 15049E 21238.62190778 .00003392 00000-0 71561-4 0 9992 2 40903 97.2303 292.8908 0013901 115.8198 10.7348 15.45824304333634 XW-2C 1 40906U 15049H 21238.55863059 .00000761 00000-0 41999-4 0 9995 2 40906 97.4882 240.0468 0013292 309.6540 166.2855 15.16891819328192 XW-2D 1 40907U 15049J 21238.47829646 .00001133 00000-0 60265-4 0 9992 2 40907 97.4867 239.7857 0012470 305.6841 206.5053 15.17234821328216 LILACSAT-2 1 40908U 15049K 21238.52255862 .00000666 00000-0 39681-4 0 9990 2 40908 97.5074 237.5729 0014763 322.7542 157.0663 15.14530503327834 XW-2E 1 40909U 15049L 21238.57385318 .00001420 00000-0 69512-4 0 9991 2 40909 97.4669 243.9802 0011451 289.1192 190.2228 15.19788684328584 XW-2F 1 40910U 15049M 21238.60025093 .00001567 00000-0 77409-4 0 9994 2 40910 97.4732 243.0897 0012490 288.2405 191.2328 15.19289653328374 XW-2B 1 40911U 15049N 21238.54424749 .00001091 00000-0 58336-4 0 9999 2 40911 97.4864 240.5229 0012414 307.2422 168.5064 15.17149369328112 DCBB 1 40912U 15049P 21238.54568556 .00001621 00000-0 74267-4 0 9995 2 40912 97.4441 247.4174 0012416 256.0010 224.0140 15.21860992328856 TW-1A 1 40928U 15051D 21238.62361200 .00005083 00000-0 10352-3 0 9991 2 40928 97.0735 261.8629 0010570 45.7551 73.0202 15.46637539332539 IO-86 1 40931U 15052B 21238.37971133 .00000771 00000-0 18098-4 0 9995 2 40931 5.9938 113.7054 0013790 312.8887 47.0146 14.76686092319656 ATHENOXAT-1 1 41168U 15077C 21238.32761574 .00002672 00000-0 99381-4 0 9992 2 41168 14.9862 107.1600 0010700 68.7330 264.0449 15.15976355315399 ChubuSat-2 1 41338U 16012B 21238.31338262 .00000515 00000-0 33083-4 0 9995 2 41338 31.0030 101.6551 0013452 106.3886 253.8229 15.00580376303107 ChubuSat-3 1 41339U 16012C 21237.99708977 .00000399 00000-0 24001-4 0 9993 2 41339 31.0114 100.8212 0013318 110.0146 250.1937 15.00723478303050 Horyu-4 1 41340U 16012D 21238.26750960 .00000799 00000-0 52919-4 0 9998 2 41340 31.0053 81.8016 0013579 147.0014 213.1471 15.01976034303294
[email protected]
